When you browse on this site, cookies collect data to enhance your experience and personalize the content and advertising you see.
Visit our Privacy Policy to learn more. By continuing to use the site, you agree to this use of cookies and data.
  • en France
  • Liste des pays
  • À 7 jours
  • Température de l'eau
  • Carte satellitaire
  • Carte météo
  • Widgets météo
  • user-avatar
    Se connecter

    Météo par heure à Dolgi

    Ce jour, 19 Février, Mardi

    Heure Température Précipitation Vent Pression Humidité
    00:00 -5°C° 0 mm 5 m/s 756 mmHg 72%
    01:00 -5°C° 0 mm 5 m/s 755 mmHg 72%
    02:00 -5°C° 0 mm 5 m/s 755 mmHg 73%
    03:00 -4°C° 0 mm 5 m/s 754 mmHg 76%
    04:00 -4°C° 0 mm 5 m/s 754 mmHg 80%
    05:00 -4°C° 0 mm 5 m/s 753 mmHg 83%
    06:00 -4°C° 0 mm 5 m/s 753 mmHg 85%
    07:00 -2°C° 0 mm 4 m/s 752 mmHg 86%
    08:00 -2°C° 0 mm 4 m/s 752 mmHg 88%
    09:00 -2°C° 0 mm 4 m/s 751 mmHg 88%
    10:00 -1°C° 0 mm 4 m/s 751 mmHg 88%
    11:00 -1°C° 0 mm 4 m/s 750 mmHg 88%
    12:00 0°C° 0 mm 4 m/s 750 mmHg 87%
    13:00 0°C° 0 mm 4 m/s 749 mmHg 87%
    14:00 0°C° 0 mm 4 m/s 749 mmHg 87%
    15:00 0°C° 0 mm 4 m/s 748 mmHg 87%
    16:00 0°C° 0 mm 4 m/s 747 mmHg 88%
    17:00 0°C° 0 mm 4 m/s 747 mmHg 88%
    18:00 0°C° 0 mm 4 m/s 746 mmHg 88%
    19:00 0°C° 0 mm 4 m/s 745 mmHg 89%
    20:00 0°C° 0 mm 5 m/s 744 mmHg 90%
    21:00 0°C° 0 mm 4 m/s 744 mmHg 90%
    22:00 0°C° 0 mm 4 m/s 743 mmHg 90%
    23:00 0°C° 0 mm 4 m/s 742 mmHg 90%

    Demain, 20 Février, Mercredi

    Heure Température Précipitation Vent Pression Humidité
    00:00 0°C° 0.3 mm 4 m/s 742 mmHg 90%
    01:00 0°C° 0.3 mm 4 m/s 742 mmHg 90%
    02:00 0°C° 0.3 mm 4 m/s 742 mmHg 90%
    03:00 0°C° 0.1 mm 4 m/s 741 mmHg 91%
    04:00 0°C° 0.1 mm 4 m/s 741 mmHg 92%
    05:00 0°C° 0.1 mm 4 m/s 741 mmHg 93%
    06:00 0°C° 0.1 mm 4 m/s 741 mmHg 92%
    07:00 0°C° 0.1 mm 4 m/s 741 mmHg 91%
    08:00 0°C° 0.1 mm 4 m/s 741 mmHg 90%
    09:00 +1°C° 0.1 mm 5 m/s 740 mmHg 88%
    10:00 +1°C° 0.1 mm 5 m/s 740 mmHg 87%
    11:00 +1°C° 0.1 mm 5 m/s 740 mmHg 85%
    12:00 +1°C° 0.1 mm 5 m/s 740 mmHg 85%
    13:00 +1°C° 0.1 mm 5 m/s 739 mmHg 85%
    14:00 +1°C° 0.1 mm 5 m/s 739 mmHg 85%
    15:00 +1°C° 0.3 mm 4 m/s 739 mmHg 85%
    16:00 0°C° 0.3 mm 4 m/s 739 mmHg 86%
    17:00 0°C° 0.3 mm 4 m/s 739 mmHg 86%
    18:00 -1°C° 0.2 mm 4 m/s 739 mmHg 86%
    19:00 -1°C° 0.2 mm 4 m/s 740 mmHg 86%
    20:00 -2°C° 0.2 mm 4 m/s 740 mmHg 86%
    21:00 -2°C° 0.4 mm 5 m/s 741 mmHg 86%
    22:00 -3°C° 0.4 mm 6 m/s 741 mmHg 87%
    23:00 -4°C° 0.4 mm 6 m/s 742 mmHg 87%

    Après-demain, 21 Février, Jeudi

    Heure Température Précipitation Vent Pression Humidité
    00:00 -4°C° 0.3 mm 6 m/s 743 mmHg 84%
    01:00 -4°C° 0.3 mm 6 m/s 743 mmHg 81%
    02:00 -5°C° 0.3 mm 6 m/s 744 mmHg 79%
    03:00 -5°C° 0 mm 6 m/s 745 mmHg 78%
    04:00 -6°C° 0 mm 6 m/s 745 mmHg 76%
    05:00 -6°C° 0 mm 6 m/s 746 mmHg 75%
    06:00 -6°C° 0.1 mm 6 m/s 747 mmHg 76%
    07:00 -6°C° 0.1 mm 6 m/s 747 mmHg 76%
    08:00 -8°C° 0.1 mm 6 m/s 748 mmHg 76%
    09:00 -6°C° 0.1 mm 6 m/s 749 mmHg 74%
    10:00 -6°C° 0.1 mm 6 m/s 750 mmHg 71%
    11:00 -7°C° 0.1 mm 7 m/s 751 mmHg 69%
    12:00 -6°C° 0.1 mm 6 m/s 752 mmHg 68%
    13:00 -6°C° 0.1 mm 6 m/s 752 mmHg 67%
    14:00 -8°C° 0.1 mm 6 m/s 753 mmHg 67%
    15:00 -8°C° 0 mm 6 m/s 754 mmHg 67%
    16:00 -9°C° 0 mm 6 m/s 755 mmHg 68%
    17:00 -9°C° 0 mm 6 m/s 756 mmHg 69%
    18:00 -10°C° 0 mm 5 m/s 757 mmHg 68%
    19:00 -10°C° 0 mm 5 m/s 758 mmHg 68%
    20:00 -11°C° 0 mm 5 m/s 759 mmHg 68%
    21:00 -11°C° 0 mm 5 m/s 760 mmHg 68%
    22:00 -11°C° 0 mm 5 m/s 760 mmHg 69%
    23:00 -11°C° 0 mm 4 m/s 761 mmHg 69%

    22 Février, Vendredi

    Heure Température Précipitation Vent Pression Humidité
    00:00 -11°C° 0 mm 4 m/s 762 mmHg 70%
    01:00 -11°C° 0 mm 4 m/s 762 mmHg 71%
    02:00 -12°C° 0 mm 4 m/s 763 mmHg 72%
    03:00 -12°C° 0 mm 4 m/s 764 mmHg 74%
    04:00 -12°C° 0 mm 4 m/s 764 mmHg 75%
    05:00 -12°C° 0 mm 4 m/s 765 mmHg 77%
    06:00 -12°C° 0 mm 3 m/s 766 mmHg 78%
    07:00 -12°C° 0 mm 3 m/s 766 mmHg 79%
    08:00 -12°C° 0 mm 3 m/s 767 mmHg 80%
    09:00 -10°C° 0 mm 3 m/s 767 mmHg 74%
    10:00 -10°C° 0 mm 4 m/s 767 mmHg 68%
    11:00 -9°C° 0 mm 4 m/s 767 mmHg 61%
    12:00 -8°C° 0 mm 4 m/s 767 mmHg 61%
    13:00 -8°C° 0 mm 4 m/s 767 mmHg 61%
    14:00 -7°C° 0 mm 5 m/s 767 mmHg 61%
    15:00 -8°C° 0 mm 5 m/s 768 mmHg 65%
    16:00 -8°C° 0 mm 5 m/s 768 mmHg 70%
    17:00 -10°C° 0 mm 5 m/s 768 mmHg 74%
    18:00 -9°C° 0 mm 4 m/s 769 mmHg 75%
    19:00 -9°C° 0 mm 4 m/s 769 mmHg 75%
    20:00 -9°C° 0 mm 4 m/s 770 mmHg 76%
    21:00 -10°C° 0 mm 4 m/s 770 mmHg 79%
    22:00 -9°C° 0 mm 3 m/s 770 mmHg 82%
    23:00 -9°C° 0 mm 2 m/s 771 mmHg 84%

    23 Février, Samedi

    Heure Température Précipitation Vent Pression Humidité
    00:00 -9°C° 0 mm 2 m/s 771 mmHg 86%
    01:00 -9°C° 0 mm 1 m/s 771 mmHg 88%
    02:00 -9°C° 0 mm 1 m/s 771 mmHg 90%
    03:00 -9°C° 0 mm 1 m/s 771 mmHg 89%
    04:00 -9°C° 0 mm 1 m/s 770 mmHg 88%
    05:00 -8°C° 0 mm 0 m/s 770 mmHg 87%
    06:00 -8°C° 0 mm 1 m/s 770 mmHg 86%
    07:00 -8°C° 0 mm 1 m/s 769 mmHg 85%
    08:00 -7°C° 0 mm 1 m/s 769 mmHg 83%
    09:00 -7°C° 0.1 mm 1 m/s 769 mmHg 84%
    10:00 -8°C° 0.1 mm 2 m/s 768 mmHg 84%
    11:00 -7°C° 0.1 mm 2 m/s 768 mmHg 85%
    12:00 -7°C° 0.4 mm 2 m/s 767 mmHg 86%
    13:00 -6°C° 0.4 mm 2 m/s 767 mmHg 88%
    14:00 -7°C° 0.4 mm 3 m/s 767 mmHg 89%
    15:00 -6°C° 0.1 mm 2 m/s 767 mmHg 89%
    16:00 -6°C° 0.1 mm 2 m/s 767 mmHg 89%
    17:00 -6°C° 0.1 mm 2 m/s 767 mmHg 89%
    18:00 -6°C° 0 mm 2 m/s 767 mmHg 90%
    19:00 -7°C° 0 mm 2 m/s 767 mmHg 92%
    20:00 -6°C° 0 mm 1 m/s 768 mmHg 93%
    21:00 -6°C° 0 mm 1 m/s 768 mmHg 94%
    22:00 -7°C° 0 mm 2 m/s 769 mmHg 94%
    23:00 -8°C° 0 mm 2 m/s 769 mmHg 95%

    24 Février, Dimanche

    Heure Température Précipitation Vent Pression Humidité
    00:00 -8°C° 0 mm 2 m/s 769 mmHg 95%
    01:00 -8°C° 0 mm 2 m/s 769 mmHg 95%
    02:00 -8°C° 0 mm 2 m/s 770 mmHg 95%
    03:00 -8°C° 0 mm 2 m/s 770 mmHg 95%
    04:00 -8°C° 0 mm 2 m/s 770 mmHg 95%
    05:00 -8°C° 0 mm 2 m/s 770 mmHg 95%
    06:00 -8°C° 0 mm 2 m/s 770 mmHg 94%
    07:00 -8°C° 0 mm 2 m/s 770 mmHg 94%
    08:00 -7°C° 0 mm 2 m/s 769 mmHg 93%
    09:00 -7°C° 0 mm 3 m/s 769 mmHg 90%
    10:00 -6°C° 0 mm 3 m/s 769 mmHg 88%
    11:00 -5°C° 0 mm 4 m/s 769 mmHg 85%
    12:00 -4°C° 0 mm 4 m/s 768 mmHg 84%
    13:00 -3°C° 0 mm 4 m/s 767 mmHg 83%
    14:00 -3°C° 0 mm 4 m/s 767 mmHg 82%
    15:00 -3°C° 0 mm 4 m/s 766 mmHg 84%
    16:00 -3°C° 0 mm 4 m/s 765 mmHg 85%
    17:00 -3°C° 0 mm 4 m/s 764 mmHg 87%
    18:00 -4°C° 0.2 mm 5 m/s 763 mmHg 87%
    19:00 -2°C° 0.2 mm 5 m/s 762 mmHg 88%
    20:00 -2°C° 0.2 mm 5 m/s 762 mmHg 89%
    21:00 -2°C° 0.1 mm 5 m/s 761 mmHg 90%
    22:00 -1°C° 0.1 mm 4 m/s 760 mmHg 91%
    23:00 -1°C° 0.1 mm 4 m/s 759 mmHg 91%
    Voir plus